RH
87 98 99 98 95 91 88 87 82 85 82 78 77 76 79 82 84 86 78 54 56 59 63 67 69 67 63 63 67 70 69 72 74 73 70 63 62 65 64 62 60 60 56
86 92 98 99 94 92 89 82 79 80 80 78 76 75 69 70 77 83 87 62 55 58 63 68 77 76 72 63 62 68 75 77 78 80 80 77 69 68 69 66 63 63 58
91 92 93 92 92 92 83 78 76 75 76 81 82 76 73 73 65 68 78 84 64 59 65 70 85 82 71 59 64 64 64 71 75 75 77 79 79 73 71 71 67 64 62
93 95 93 93 93 85 82 78 73 74 88 96 94 92 83 77 83 82 71 69 78 78 68 71 77 81 79 68 76 74 69 66 68 71 77 80 81 82 76 75 73 68 66
96 93 90 88 86 81 78 75 74 87 95 95 82 83 73 67 61 78 82 82 80 77 91 92 82 81 83 79 78 77 79 78 80 74 73 81 83 87 89 81 76 75 69
91 88 85 84 78 74 74 70 91 92 98 96 71 67 63 67 78 75 83 86 85 82 79 94 94 84 85 83 84 83 81 81 77 81 74 77 79 82 92 90 82 80 77
78 71 79 86 80 73 89 76 77 71 75 73 74 76 82 92 85 75 72 72 85 73 78 94 99 99 96 88 86 88 90 88 82 77 79 77 81 82 83 88 88 84 86
57 60 84 91 91 97 98 86 83 78 80 73 81 87 85 87 86 73 72 73 82 83 79 78 86 86 89 95 100 99 98 98 88 84 80 83 75 82 82 85 87 96 93
72 61 97 98 90 79 92 78 74 77 82 95 94 93 83 82 89 91 80 79 87 82 81 79 83 92 94 87 84 89 99 100 98 88 87 88 78 79 73 75 80 90 99
88 78 85 63 62 59 72 74 76 75 85 94 89 84 82 79 91 90 92 88 85 86 86 89 87 88 86 84 86 90 84 91 88 92 91 92 80 72 71 68 68 80 84
56 54 61 67 71 76 80 82 82 83 86 90 79 87 81 84 89 97 98 94 92 86 78 80 85 82 76 76 76 75 72 75 85 88 93 90 81 87 87 69 75 84 77
54 71 76 74 74 80 82 84 87 81 82 91 81 88 89 97 98 87 88 93 95 90 80 76 75 77 73 78 82 80 83 86 87 85 78 82 86 92 88 81 74 81 84
73 76 80 82 82 85 91 88 70 65 82 85 85 92 95 97 96 98 100 98 99 98 87 70 72 78 81 79 82 88 88 87 91 95 89 77 96 91 90 88 81 77 81
98 94 88 84 79 80 75 68 63 78 98 98 99 100 98 94 89 83 75 91 95 96 92 90 84 69 68 73 79 84 88 95 96 98 91 67 87 89 89 89 84 69 55
98 89 89 84 78 73 75 73 87 97 99 97 92 88 87 87 80 69 75 76 98 97 87 80 96 88 84 73 87 93 98 98 99 100 100 100 99 97 91 89 83 66 58
91 95 92 81 84 74 71 91 98 88 90 73 73 76 79 72 72 61 42 47 52 68 99 66 81 72 69 80 78 96 95 100 100 99 100 100 100 98 95 93 83 75 75
82 91 94 92 78 74 90 90 80 68 66 68 74 75 75 62 44 45 45 46 52 72 98 92 69 68 70 92 91 93 91 100 99 98 99 99 99 99 95 92 81 76 82
78 67 80 93 96 91 92 86 70 69 71 68 61 50 42 43 47 49 50 51 50 57 71 80 81 71 83 94 92 87 99 99 98 98 99 100 100 100 96 94 80 86 97
87 89 98 100 98 90 90 73 70 63 52 43 43 44 45 47 48 48 49 51 52 54 59 64 77 76 84 91 91 86 93 100 100 100 99 100 100 100 98 92 91 91 100
98 100 100 91 89 80 74 71 53 45 45 46 45 45 48 51 52 52 54 56 55 56 58 63 69 76 91 99 100 94 95 99 100 100 100 99 100 99 97 92 87 99 100
100 82 78 74 73 72 69 53 47 49 48 47 49 52 53 54 57 58 59 61 59 58 59 59 67 94 96 97 99 100 100 100 99 100 100 99 99 100 99 96 94 97 99
89 86 76 75 75 76 57 50 51 49 49 52 53 55 57 58 59 60 59 61 62 63 63 68 68 91 98 100 97 100 100 100 100 99 100 99 100 100 100 99 97 97 100
88 81 79 80 79 61 54 53 53 55 56 58 60 61 62 61 60 61 62 60 60 61 63 66 74 87 98 94 98 100 100 100 100 100 100 99 100 100 100 99 100 99 97
89 87 83 73 60 57 56 58 61 62 64 65 64 63 63 64 64 66 68 67 66 68 72 76 81 85 89 97 99 100 100 100 99 99 100 100 100 99 100 99 100 100 87
84 76 66 62 60 58 60 64 66 68 65 62 61 65 68 72 72 70 69 70 69 72 73 81 82 86 94 95 96 99 99 100 99 99 100 100 100 100 99 98 99 98 80
66 65 65 64 62 62 66 68 68 62 60 61 65 68 70 72 76 80 80 81 82 80 82 84 86 88 93 93 98 100 99 100 100 100 99 100 100 100 99 97 94 80 74
Wind_Speed
25 26 28 23 18 14 14 12 10 9 8 7 7 5 6 5 5 5 4 3 2 2 1 1 2 2 5 5 5 4 5 5 6 6 6 6 5 6 6 7 8 11 12
26 27 26 17 15 15 13 12 11 10 8 7 5 5 4 6 5 6 5 5 5 4 3 2 1 1 2 3 4 4 5 5 5 5 5 6 5 5 6 6 6 8 10
23 20 20 19 17 14 13 11 11 9 7 8 6 6 5 4 5 6 7 6 8 7 6 4 4 4 2 2 2 4 5 5 6 5 5 5 6 6 5 5 5 6 8
24 22 22 19 16 14 13 11 11 10 7 5 4 5 7 7 6 7 8 7 10 8 8 7 5 5 4 3 3 4 5 5 5 6 7 7 8 8 7 6 6 5 6
24 23 20 18 16 14 13 12 11 8 8 7 7 7 7 8 7 7 8 9 9 10 8 11 9 8 8 8 6 6 7 7 7 7 8 11 10 9 9 9 8 7 5
25 21 19 16 16 15 13 12 10 11 8 7 7 8 8 8 9 8 6 7 8 10 10 10 11 11 12 11 10 9 10 8 9 10 11 11 11 12 11 11 11 10 9
26 25 18 16 16 13 11 12 11 11 10 8 7 8 7 7 8 8 9 10 11 12 13 10 10 11 14 13 15 15 14 13 11 11 12 11 11 14 13 13 13 12 13
28 26 19 18 16 14 14 13 12 12 11 9 6 6 3 7 8 8 7 10 11 14 14 15 16 16 18 17 18 19 18 17 15 12 11 11 11 12 13 15 17 18 15
25 25 20 19 18 16 15 15 15 13 10 10 14 5 2 3 2 8 8 10 10 12 13 16 17 17 17 14 18 17 17 19 18 10 12 11 11 12 14 14 14 16 19
26 24 23 19 18 19 18 16 15 12 15 18 11 10 10 11 5 3 9 9 11 14 9 13 11 13 15 17 15 13 13 14 13 14 14 12 12 14 14 14 15 15 16
26 26 24 21 20 19 16 15 14 15 15 15 14 14 13 11 9 10 9 13 8 11 9 10 12 11 9 10 10 8 11 16 15 14 16 12 15 14 14 14 15 17 19
28 26 25 23 21 18 16 15 15 12 14 18 20 16 14 11 10 8 9 12 13 15 12 12 11 11 11 13 15 14 16 17 14 13 10 15 17 12 13 12 13 14 14
30 29 26 22 18 18 14 14 6 22 21 22 21 17 15 12 10 10 9 10 13 15 17 15 12 14 17 18 18 18 18 17 15 11 10 12 14 14 15 16 15 17 18
25 23 18 15 14 10 6 9 19 25 20 18 19 15 12 13 15 13 14 12 15 14 16 16 19 16 15 15 16 15 17 16 13 10 5 10 20 19 16 18 20 19 19
23 16 15 13 11 9 13 20 26 20 18 15 15 15 16 16 16 16 18 16 15 12 14 11 13 17 14 15 15 16 16 13 12 13 17 18 22 18 17 18 20 17 15
25 16 13 15 15 13 25 29 23 20 20 15 14 15 17 17 17 17 16 16 16 16 14 17 16 23 24 22 19 16 17 15 12 17 19 22 20 18 16 16 18 13 10
34 28 27 27 23 26 28 25 21 19 18 15 16 16 16 16 15 16 16 15 15 14 17 19 22 23 21 20 19 19 19 17 16 17 20 20 19 18 16 17 17 10 7
40 41 36 30 33 33 27 24 22 19 17 17 16 15 17 17 15 15 14 13 14 15 18 21 22 21 20 20 20 19 19 18 18 18 19 21 19 18 15 16 17 10 10
32 33 34 32 28 30 28 26 21 20 19 18 17 17 17 15 15 14 14 15 15 17 18 22 22 24 21 19 20 20 20 19 20 20 20 20 20 17 15 14 12 11 12
34 30 29 27 27 26 25 23 22 21 19 17 16 15 15 14 15 15 16 18 19 19 20 21 22 23 24 23 22 19 18 20 20 21 20 19 17 16 14 13 12 9 15
31 28 27 25 24 25 24 23 21 19 17 15 14 14 15 15 16 17 19 20 22 21 19 19 20 23 23 23 22 20 17 18 20 20 19 17 17 16 15 14 13 11 15
27 27 25 23 25 26 24 22 19 17 15 15 14 15 16 17 19 20 21 20 19 19 19 20 22 22 20 22 22 20 16 14 15 17 18 18 18 18 17 14 14 14 16
24 25 23 23 23 22 20 19 17 16 15 14 15 16 17 18 19 20 20 19 19 19 20 19 19 17 20 21 21 21 18 17 16 17 15 16 18 18 18 16 15 14 14
24 24 24 23 22 20 19 17 16 15 14 13 13 15 17 18 18 18 18 18 17 18 18 17 17 16 17 20 22 22 19 18 17 17 18 18 17 16 16 16 16 15 14
21 21 21 21 20 19 18 17 15 12 10 10 13 14 14 15 17 17 17 17 16 15 15 15 14 15 16 16 16 16 16 17 19 19 19 18 17 16 15 15 15 17 16
18 20 21 20 20 19 18 17 14 11 10 9 10 11 11 13 15 15 15 15 14 15 14 13 14 13 15 14 14 13 15 17 16 16 17 17 17 13 10 16 17 16 17
Wind_Direction
173 184 178 173 167 164 179 174 176 180 166 164 169 174 173 170 169 164 251 205 193 174 131 91 87 60 39 48 44 33 32 22 23 19 15 12 13 14 24 28 27 28 28
173 196 176 175 169 182 183 181 176 177 180 178 189 195 202 203 194 195 217 249 240 236 238 239 230 326 356 15 30 18 4 355 346 348 347 347 347 348 354 7 16 20 27
174 170 175 179 185 181 182 179 180 180 184 189 195 204 207 212 231 231 227 239 261 251 248 251 259 271 264 333 19 21 7 343 334 329 327 331 326 320 324 330 349 7 17
175 175 179 181 183 180 180 183 187 182 185 200 205 224 222 234 226 238 252 242 240 263 257 255 256 260 254 268 291 337 9 7 342 321 301 299 303 304 295 301 311 334 360
177 175 179 179 177 179 182 186 191 187 193 212 213 226 241 248 257 244 241 246 256 245 249 277 266 263 261 259 278 292 302 338 334 321 304 289 284 288 288 288 286 296 310
176 171 176 178 178 185 186 194 196 187 195 218 237 252 263 259 251 249 251 256 247 261 258 245 270 266 257 258 265 269 276 298 315 315 315 291 282 273 273 272 278 280 284
180 178 175 178 183 189 192 203 201 205 211 225 242 264 270 253 259 271 271 267 251 260 254 248 251 246 266 264 260 262 268 269 282 301 303 298 285 274 270 259 259 265 272
188 182 181 183 184 188 194 197 204 209 219 230 223 238 235 267 276 267 276 289 264 262 272 271 267 271 273 277 283 266 262 260 263 289 294 290 295 291 286 268 260 261 261
188 186 184 185 194 201 203 205 213 218 228 237 223 191 264 270 280 275 287 293 277 290 287 279 274 271 273 282 288 276 269 269 258 287 287 288 291 294 292 286 275 262 256
192 190 193 195 201 204 207 211 221 231 229 231 247 238 246 265 269 279 308 291 304 292 307 278 272 270 274 283 283 279 292 291 286 287 287 286 302 294 284 280 272 267 262
200 197 199 198 201 206 213 218 222 236 245 249 260 264 272 266 263 276 274 289 290 289 296 280 274 270 280 285 292 287 301 302 290 293 284 286 282 293 287 278 271 267 260
193 195 199 203 207 208 212 219 217 223 252 252 267 254 260 274 281 272 286 293 286 281 276 286 274 262 271 273 266 267 280 285 286 278 291 309 285 282 283 285 287 278 272
194 198 200 205 207 211 206 195 224 251 274 247 255 250 266 259 254 263 267 278 281 289 296 291 274 268 270 275 273 276 285 289 289 285 276 281 256 284 291 286 284 276 269
203 192 172 183 201 189 202 241 231 249 254 237 244 249 249 235 247 263 279 273 279 286 286 288 294 293 283 278 276 282 286 284 287 256 233 280 254 271 284 296 295 293 284
174 179 194 193 204 220 227 224 237 239 235 229 226 233 241 247 265 267 275 269 260 277 293 301 277 292 293 297 286 288 288 276 268 231 252 254 258 266 287 301 310 303 307
204 216 221 212 227 240 231 243 220 217 223 227 231 239 249 259 265 270 273 271 267 256 255 276 268 283 293 295 292 289 295 279 260 247 258 263 266 263 282 301 307 310 324
210 231 262 253 253 230 234 211 214 217 226 231 238 245 256 262 265 268 270 271 272 266 264 276 280 288 291 291 287 284 280 277 272 269 258 257 261 268 285 305 312 299 250
228 229 231 222 225 231 207 208 214 220 227 233 238 245 251 255 257 261 266 270 277 278 278 285 287 293 292 290 290 288 284 273 268 268 268 265 261 266 281 300 307 288 232
192 204 218 219 197 194 200 207 212 216 221 228 236 240 245 247 253 266 272 277 280 284 285 286 290 291 288 278 273 276 276 273 267 262 263 263 266 268 280 294 299 285 241
215 200 186 187 192 196 204 211 213 217 221 230 236 239 245 253 263 270 275 278 283 289 291 292 293 295 291 286 280 276 273 268 268 265 261 259 266 272 277 296 298 248 227
185 185 186 193 199 204 210 212 216 221 227 231 234 242 251 259 265 273 280 283 288 288 288 290 291 291 288 282 281 279 275 271 266 261 257 257 262 265 269 284 287 255 234
188 191 195 200 206 209 210 211 217 223 226 232 240 249 258 264 270 275 277 280 282 287 296 300 312 309 293 284 277 273 275 276 263 264 260 261 263 263 262 271 272 258 237
191 198 206 211 209 209 211 214 216 219 227 236 246 255 263 270 274 277 278 279 282 286 284 290 300 307 287 284 278 278 275 271 269 263 266 263 257 260 258 265 263 255 242
204 208 207 205 204 207 208 209 213 222 232 244 258 270 274 277 276 275 277 277 282 281 282 283 291 297 291 281 274 276 276 269 263 260 258 257 258 256 254 260 259 250 243
206 207 206 206 207 205 203 207 213 222 238 266 279 281 285 282 280 279 279 276 278 277 275 277 282 291 286 282 279 277 271 265 261 259 256 251 252 249 255 263 256 247 243
210 213 213 211 208 206 204 208 211 221 241 267 281 289 291 296 295 290 284 280 277 278 281 277 280 278 278 279 275 267 265 261 256 261 259 245 248 248 253 261 253 244 244